Regional Weather Roundup
Issued by NWS

Home | Current Version | Previous Version | Graphics & Text | Print | Product List | Glossary On
Versions: 1 2 3 4 5 6 7 8 9 10 11 12 13 14 15 16 17 18 19 20 21 22 23 24 25 26 27 28 29 30 31 32 33 34 35 36 37 38 39 40 41 42 43 44 45 46 47 48 49 50
000
ASUS43 KBIS 221002
RWRND

NORTH DAKOTA REGIONAL WEATHER ROUNDUP
NATIONAL WEATHER SERVICE BISMARCK ND
500 AM CDT FRI JUL 22 2016

NOTE: "FAIR" INDICATES FEW OR NO CLOUDS BELOW 12,000 FEET WITH NO
SIGNIFICANT WEATHER AND/OR OBSTRUCTIONS TO VISIBILITY.


NDZ001>003-009>011-017-221100-
NORTHWEST NORTH DAKOTA

CITY           SKY/WX    TMP DP  RH WIND       PRES   REMARKS
WILLISTON      CLEAR     64  56  75 N6        30.04R
MINOT          CLEAR     63  59  87 CALM      30.01S
MINOT AFB      CLEAR     57  56  97 S3        30.00F
$$

NDZ018>021-031>035-040>046-221100-
SOUTHWEST NORTH DAKOTA

CITY           SKY/WX    TMP DP  RH WIND       PRES   REMARKS
BISMARCK       PTCLDY    68  65  90 NE3       30.02R
DICKINSON      CLEAR     63  58  83 NE7       30.04R
GARRISON         N/A     66  61  84 E3        30.01F
HETTINGER ARPT CLEAR     68  65  90 SE8       30.04S
$$

NDZ004>008-012>016-024-026-027-054-221100-
NORTHEAST NORTH DAKOTA

CITY           SKY/WX    TMP DP  RH WIND       PRES   REMARKS
GRAND FORKS    PTCLDY    67  64  90 S6        29.96S
GRND FRKS AFB  CLOUDY    68  65  90 SW5       29.98R
DEVILS LAKE    CLEAR     68  62  81 S5        30.02R
$$

NDZ022-023-025-028>030-036>039-047>053-221100-
SOUTHEAST NORTH DAKOTA

CITY           SKY/WX    TMP DP  RH WIND       PRES   REMARKS
FARGO          PTCLDY    67  64  90 N5        29.97S
JAMESTOWN      CLOUDY    73  67  81 CALM      30.01R
$$





USA.gov is the U.S. government's official web portal to all federal, state and local government web resources and services.